Location: Little Arabia
(41.4620°N, 81.7687°W)
Time: 20:37:03
(UTC+00:00)

Meteor 2-21 - Pass Details

Date: 29 October 2020
Orbit: 933 x 967 km, 82.5° (Epoch: 02 December)

Event Time Altitude Azimuth Distance (km) Brightness Sun altitude
Rises 22:41:30 0° 352° (N) 3,644 7.4 -3.8°
Reaches altitude 10° 22:44:02 10° 353° (N) 2,689 6.8 -4.2°
Maximum altitude 22:50:12 86° 82° (E) 955 4.5 -5.4°
Drops below altitude 10° 22:56:16 10° 172° (S) 2,648 6.9 -6.5°
Sets 22:58:43 0° 173° (S) 3,584 7.5 -6.9°
